Location: Nijmegen RU
(51.8233°N, 354.1314°E)
Time: 13:26:02
(UTC+01:00)

Envisat - Pass Details

Date: 25 February 2019
Orbit: 764 x 766 km, 98.2° (Epoch: 24 March)

Event Time Altitude Azimuth Distance (km) Brightness Sun altitude
Rises 20:06:47 0° 173° (S) 3,222 6.2 -11.7°
Reaches altitude 10° 20:09:06 10° 176° (S) 2,300 5.4 -12.1°
Maximum altitude 20:14:08 64° 258° (WSW) 851 3.5 -12.8°
Drops below altitude 10° 20:19:12 10° 340° (NNW) 2,317 5.8 -13.6°
Sets 20:21:33 0° 344° (NNW) 3,247 6.5 -14.0°
